THORAD AGENA D DEB, 4980

Orbit data source: Space-Track

THORAD AGENA D DEB, 4980 is space debris in SSO originally from a launch on Wed, 08 Apr 1970 UTC launched from the Air Force Western Test Range (AFWTR). Debris objects in space refer to the collection of defunct objects orbiting the Earth. Examples of debris include non-operational satellites, rocket bodies, and fragments generated from explosions, collisions, or faulty payload assembly.

Loading next visibility...
Identifier
4980, 1970-025HA
Orbit
SSO
Country
Flag of USUS
Related business
Manufacturer
Unknown
Mission
Spacecraft
Bus & Motor
Unknown
Mass
Unknown
Launch date (UTC)
1970-04-08 (56 years ago)
Launch vehicle
Unknown
Launch site
Air Force Western Test Range (AFWTR)
Object type
Payload
Rocket body
Debris
Shape & HBR
Unknown shape, 0.1 m
Radar Cross Section
Small (<0.1 m²)

Expand to show TLE details & history
Last TLE update: 21 hours ago

TLE from 21 hours ago
0 THORAD AGENA D DEB
1 04980U 70025HA  25348.50630991  .00000427  00000-0  60787-3 0  9994
2 04980  99.2860 183.9436 0008509 262.3875 126.8657 13.62006366755089
Epoch: 2025-12-14T12:09Z
TLE epoch observation values (Epoch: 2025-12-14T12:09:05.176Z)
Latitude
28.95639°
Longitude
-86.90999°
Altitude
1,035.699 km
Speed
7.335 km/s
True Right ascension
11h 55m 07s
True Declination
28° 48' 59"
Sunlit
Object was in daylight at epoch
Visualization orbit readout
Latitude
Unknown
Longitude
Unknown
Altitude
Unknown
Speed
Unknown
Apparent Right ascension
Unknown
Apparent Declination
Unknown
Sunlit
N/A
Visualization observer readout
Local Sidereal Time
07:45:47
Azimuth
Unknown
Elevation
Unknown
Doppler factor
Unknown
Orbital elements
Apogee altitude
1,031.974 km
Perigee altitude
1,019.374 km
Semi-major axis
7,403.811 km
Eccentricity
0.00085
Inclination
99.286°
RAAN
183.9436°
Arg. of periapsis
262.3875°
True anomaly
126.94366°
Mean anomaly
126.8657°
Eccentric anomaly
126.90468°
Mean motion
3.40691 °/min
Orbital period
105.67 mins
BSTAR
0.00060787

Documentation

Showing up to 5 results
|